Tracking 31080 objects as of 20-Jul-2025
HD Live streaming from Space Station
objects crossing your sky now

SL-8 DEB

Track SL-8 DEB now!
10-day predictions


NORAD ID: 11752
Int'l Code: 1980-026C
Perigee: 979.0 km
Apogee: 996.5 km
Inclination: 65.8 °
Period: 104.7 minutes
Semi major axis: 7358 km
RCS: 0.4567 m2 (medium)
Launch date: April 3, 1980
Source: Commonwealth of Independent States (former USSR) (CIS)
Launch site: PLESETSK MISSILE AND SPACE COMPLEX (PKMTR)

Note: This is SATELLITE DEBRIS
Your satellite tracking list
Your tracking list is empty




NASA's NSSDC Master Catalog

Two Line Element Set (TLE):
1 11752U 80026C   25200.58974469 -.00000038  00000-0  44723-4 0  9999
2 11752  65.8416 150.6643 0011940  71.8096 100.8830 13.75301496273347
Source of the keplerian elements: AFSPC